sat.trackr.live / text

‹ back to catalog

STARLINK-30056

NORAD 57622 · 2023-119W

PAYLOAD ACTIVE UNKNOWN

§ Identity

Operator
Country
US
Launch date
2023-08-11
Launch site
AFETR
Launch vehicle
Mass (kg)
RCS (m²)

Purposes: comms

External: N2YO · Heavens-Above · Gunter

§ Orbital elements

Epoch: 2026-09-20T18:47:36.242304Z

Period
94.27 min
Inclination
43.0026°
Eccentricity
0.0001359
Mean motion
15.27577043 rev/d
Perigee alt
482.1 km
Apogee alt
484.0 km
Semi-major
6,861.2 km
B*
1.7982e-5
RAAN
59.7474°
Arg perigee
270.0236°
Mean anomaly
90.0460°
Rev number
17,292

§ Raw data

STARLINK-300561 57622U 23119W   26263.78305836  .00000233  00000+0  17982-4 0  99952 57622  43.0026  59.7474 0001359 270.0236  90.0460 15.27577043172924

JSON: /api/v1/satellites/57622 · /tle

For live sub-satellite position, see the globe view (requires WebGL).

§ Visibility from observer

Set your observer location to see the next 7 days of passes ≥ 10°. The values pass through the URL so the page stays shareable.

No JS? Fill the form by hand. The geolocation button needs JavaScript.